This is the latest recevied weather packets stored in our database for station/object K6GMW. If no packets are shown the sender has not sent any weather packets the latest 10 day(s).
| Time | Temp. | Humidity | Pressure | Rain* | Wind** | Luminosity | Snow |
|---|---|---|---|---|---|---|---|
| 1777916604 | 23.89° C | 52% | 1014.9 hPa | 0 mm | - | 980 W/m² | - |
| 1777916300 | 23.89° C | 50% | 1015.1 hPa | 0 mm | - | 691 W/m² | - |
| 1777915997 | 23.89° C | 50% | 1015.2 hPa | 0 mm | - | 742 W/m² | - |
| 1777915694 | 23.89° C | 51% | 1015.2 hPa | 0 mm | - | 651 W/m² | - |
| 1777915391 | 23.89° C | 48% | 1015.4 hPa | 0 mm | - | 844 W/m² | - |
| 1777915086 | 23.89° C | 52% | 1015.4 hPa | 0 mm | - | 855 W/m² | - |
| 1777914784 | 23.89° C | 50% | 1015.4 hPa | 0 mm | - | 961 W/m² | - |
| 1777914481 | 23.89° C | 50% | 1015.4 hPa | 0 mm | - | 892 W/m² | - |
| 1777914178 | 23.89° C | 49% | 1015.5 hPa | 0 mm | - | 881 W/m² | - |
| 1777913874 | 23.89° C | 51% | 1015.5 hPa | 0 mm | - | 950 W/m² | - |
| 1777913571 | 23.89° C | 51% | 1015.4 hPa | 0 mm | - | 943 W/m² | - |
| 1777913267 | 23.33° C | 51% | 1015.5 hPa | 0 mm | - | 941 W/m² | - |
| 1777912964 | 23.33° C | 51% | 1015.6 hPa | 0 mm | - | 937 W/m² | - |
| 1777912660 | 23.33° C | 52% | 1015.6 hPa | 0 mm | - | 924 W/m² | - |
| 1777912356 | 22.78° C | 53% | 1015.7 hPa | 0 mm | - | 928 W/m² | - |
| 1777912052 | 22.78° C | 52% | 1015.7 hPa | 0 mm | - | 777 W/m² | - |
| 1777911748 | 22.78° C | 51% | 1015.7 hPa | 0 mm | - | 922 W/m² | - |
| 1777911445 | 23.33° C | 52% | 1015.7 hPa | 0 mm | - | 901 W/m² | - |
| 1777911142 | 22.78° C | 52% | 1015.9 hPa | 0 mm | - | 819 W/m² | - |
| 1777910840 | 22.78° C | 55% | 1016 hPa | 0 mm | - | 870 W/m² | - |
| 1777910536 | 22.78° C | 56% | 1016 hPa | 0 mm | - | 871 W/m² | - |
| 1777910233 | 22.22° C | 55% | 1016.2 hPa | 0 mm | - | 783 W/m² | - |
| 1777909930 | 22.22° C | 54% | 1016.2 hPa | 0 mm | - | 818 W/m² | - |
| 1777909627 | 22.22° C | 56% | 1016.1 hPa | 0 mm | - | 830 W/m² | - |
| 1777909324 | 21.67° C | 56% | 1016.3 hPa | 0 mm | - | 815 W/m² | - |
* Rain latest hour (hover to see other rain measurements)
** Current wind speed in m/s (hover to see current wind gust speed)